Weather History for LICZ - October, 2012

Change the Weather History Date:

Thursday, October 4, 2012

  Actual Average Record
Temperature  
Mean Temperature 69 °F -  
Max Temperature 83 °F 75 °F 93 °F (2006)
Min Temperature 55 °F 55 °F 55 °F (2004)
Cooling Degree Days 4    
Growing Degree Days 19 (Base 50)    
Moisture  
Dew Point 57 °F    
Average Humidity 68    
Maximum Humidity 100    
Minimum Humidity 18    
Precipitation  
Precipitation 0.00 in 0.09 in - ()
Sea Level Pressure  
Sea Level Pressure 30.07 in    
Wind  
Wind Speed 4 mph ()    
Max Wind Speed 13 mph    
Max Gust Speed -    
Visibility 6.3 miles    
Events      
Averages and records for this station are not official NWS values.
T = Trace of Precipitation, MM = Missing Value Source: Averaged Metar Reports

Daily Weather History Graph

Daily Weather History Graph

Search for Another Location

Airport or City:

Trip Planner

Search our weather history database for the weather conditions in past years. The results will help you decide how hot, cold, wet, or windy it might be!

Date:

Astronomy

Oct. 04, 2012 Rise Set
Actual Time 6:58 AM CEST 6:38 PM CEST
Civil Twilight 6:32 AM CEST 7:04 PM CEST
Nautical Twilight 6:02 AM CEST 7:34 PM CEST
Astronomical Twilight 5:31 AM CEST 8:05 PM CEST
Moon 9:06 PM CEST (10/4) 10:54 AM CEST (10/4)
Length of Visible Light 12h 32m
Length of Day
11h 40m
Waning Gibbous, 84% of the Moon is Illuminated
Oct 4
Waning Gibbous
Oct 8
Last Quarter
Oct 15
New
Oct 22
First Quarter
Oct 29
Full

Hourly Weather History & Observations

Time (CEST) Temp. Heat Index Dew Point Humidity Pressure Visibility Wind Dir Wind Speed Gust Speed Precip Events Conditions
12:55 AM 66.2 °F - 64.4 °F 94% 30.09 in 6.2 mi NW 2.3 mph - N/A   Partly Cloudy
1:55 AM 62.6 °F - 60.8 °F 94% 30.09 in 6.2 mi West 5.8 mph - N/A   Partly Cloudy
2:00 AM 62 °F - 60 °F 92% 30.11 in 7 mi West 5.8 mph - -   Scattered Clouds
2:55 AM 60.8 °F - 59.0 °F 94% 30.09 in 6.2 mi West 3.5 mph - N/A   Partly Cloudy
3:55 AM 62.6 °F - 55.4 °F 77% 30.09 in 6.2 mi WNW 4.6 mph - N/A   Partly Cloudy
4:55 AM 59.0 °F - 59.0 °F 100% 30.09 in - WSW 3.5 mph - N/A   Clear
5:00 AM 58 °F - 58 °F 100% 30.10 in 7 mi WSW 3.5 mph - -  
5:55 AM 57.2 °F - 57.2 °F 100% 30.06 in - WSW 3.5 mph - N/A   Clear
6:55 AM 57.2 °F - 57.2 °F 100% 30.06 in - West 5.8 mph - N/A   Clear
7:55 AM 57.2 °F - 57.2 °F 100% 30.09 in - West 2.3 mph - N/A   Clear
8:00 AM 58 °F - 58 °F 98% 30.10 in 7 mi West 2.3 mph - -  
8:55 AM 75.2 °F - 62.6 °F 65% 30.12 in - West 3.5 mph - N/A   Clear
9:55 AM 73.4 °F - 51.8 °F 47% 30.09 in - West 2.3 mph - N/A   Clear
10:55 AM 77.0 °F - 51.8 °F 41% 30.09 in - South 2.3 mph - N/A   Clear
11:00 AM 77 °F - 52 °F 31% 30.12 in 6 mi South 2.3 mph - -  
11:55 AM 77.0 °F - 53.6 °F 44% 30.09 in - West 1.2 mph - N/A   Clear
12:55 PM 80.6 °F 80.3 °F 53.6 °F 39% 30.09 in - SSW 4.6 mph - N/A   Clear
1:55 PM 82.4 °F - 46.4 °F 28% 30.06 in - SSE 4.6 mph - N/A   Clear
2:00 PM 82 °F - 46 °F 18% 30.07 in 6 mi SSE 4.6 mph - -  
2:55 PM 82.4 °F - 51.8 °F 35% 30.04 in - East 11.5 mph - N/A   Clear
3:55 PM 78.8 °F - 50.0 °F 36% 30.04 in - East 12.7 mph - N/A   Clear
4:55 PM 77.0 °F - 53.6 °F 44% 30.04 in - ENE 11.5 mph - N/A   Clear
5:00 PM 77 °F - 53 °F 33% 30.05 in 6 mi ENE 11.5 mph - -  
5:55 PM 75.2 °F - 53.6 °F 47% 30.04 in - ENE 11.5 mph - N/A   Clear
6:55 PM 71.6 °F - 59.0 °F 64% 30.04 in - ENE 8.1 mph - N/A   Clear
7:55 PM 69.8 °F - 59.0 °F 68% 30.06 in - ENE 4.6 mph - N/A   Clear
8:00 PM 71 °F - 59 °F 56% 30.06 in 6 mi ENE 4.6 mph - -  
8:55 PM 68.0 °F - 62.6 °F 83% 30.04 in - ENE 3.5 mph - N/A   Clear
9:55 PM 66.2 °F - 62.6 °F 88% 30.04 in - WNW 4.6 mph - N/A   Clear
10:55 PM 66.2 °F - 62.6 °F 88% 30.06 in - WNW 3.5 mph - N/A   Clear
11:00 PM 65 °F - 62 °F 89% 30.07 in 6 mi WNW 3.5 mph - -  
11:55 PM 64.4 °F - 62.6 °F 94% 30.06 in - West 4.6 mph - N/A   Clear